World > North America > United States > Arizona

McNary, Arizona Regional Weather

Lat: 34.07N, Lon: 109.86W
Wx Zone: AZZ017Web Search

Our weather pages are very print friendly and they make great conversation starters.

Feedback


°F Click to change McNary hourly weather to Imperial units.Click to change McNary hourly weather to Metric units. °C
Mcnary Weather Map
UTC Time: 4/13/2021, 19:28
Your Time:

McNary, AZ Regional Weather

Expires:202104132000;;500213
ASUS45 KPSR 131910
RWRAZ 

ARIZONA HOURLY REGIONAL WEATHER ROUNDUP
NATIONAL WEATHER SERVICE PHOENIX AZ
1200 PM MST TUE APR 13 2021

NOTE: FAIR INDICATES FEW OR NO CLOUDS BELOW 12,000 FEET WITH NO
SIGNIFICANT WEATHER AND/OR OBSTRUCTIONS TO VISIBILITY.


AZZ009>014-017-132000-
NORTHEAST ARIZONA
  
CITY           SKY/WX    TMP DP  RH WIND       PRES   REMARKS
WINSLOW        MOSUNNY   73  19  13 S18G26    29.85F                  
SAINT JOHNS    SUNNY     72  21  14 SW18G31   29.87F                  
WINDOW ROCK    PTSUNNY   64  22  20 SW17G28   29.93F                  
SHOW LOW       SUNNY     66  18  15 S22G32    29.96F                  
$$


SKY/WX - Weather  TMP - Temperature  DP - Dew Point  RH - Relative Humidity
WIND - Wind Direction/Speed PRES - Barometric Pressure VSB - Visibility
WCI - Wind Chill Index E13G22 Wind - East Wind 13 mph/Gusts of 22 mph